星链-2627 (STARLINK-2627 )

导读 | 星芒AI

STARLINK-2627 是 SpaceX Starlink 项目中的一颗低轨通信卫星,旨在为全球用户提供高速互联网服务。该卫星于2023年发射,运行在约550公里高度的近地轨道,采用先进推进系统和激光通信技术,以提升网络连接效率与稳定性。作为 Starlink 二代卫星之一,它具备更强的通信能力和更长的使用寿命,有助于扩大卫星互联网覆盖范围,特别是在偏远和网络基础设施薄弱地区。

基本信息
目录编号:
48687
目录名称:
STARLINK-2627
国际标识:
2021-044BB
轨道中心:
EARTH
卫星名称:
星链-2627
卫星全名:
星链-2627 (STARLINK-2627 )
卫星状态:
在轨 (已飞行1618 天)
发射日期:
2021-05-26 UTC
国别 :
美国 (US)
星等 :
--
轨道信息
数据来源 国际轨道数据
星历时间: 2025-10-30T13:52:32+0800
9小时前
查看轨道信息
半长轴: 6925.364km
偏心率: 0.0001397
轨道倾角: 53.055°
近地点辐角 94.216°
升交点赤经 292.211°
平近点角 265.899°
近地点: 546.261km
远地点: 548.197km
周期: 95.592分钟
每日圈数: 15.06395
详细信息
固有亮度:
5
最大亮度:
2.5
卫星平台:
Starlink v1.5
覆盖范围:
全球
运营商:
太空探索技术公司
运营商所在国:
美国
制造商(研发单位):
太空探索技术公司
制造商所在国:
美国
使用方式:
暂无
卫星简介
星链(Starlink)计划是由太空探索技术公司(SpaceX)提出的一个巨型低轨卫星互联网星座项目,计划在2019年至2024年间在太空搭建由约1.2万颗卫星组成的“星链”网络,其中1584颗将部署在地球上空550千米处的近地轨道,并从2020年开始工作。该卫星仍在工作。
2D轨道图
3D轨道图
轨道高度分析图
轨道倾角分析图
轨道综合分析图
查看轨道综合分析图